This demonstration page uses our WeatherBlox Daily Observations layout. Learn more.

Left ArrowRight Arrow

44.31136, -96.79839

Hourly Observations for August 10, 2022

Temp ( °F °C ) Dew Point ( °F °C ) Humidity (%) Winds ( mph kmh ) Pressure ( in mb ) Visibility ( mi km ) Precip ( " mm )
12:56 am 00:56 Clear 66 18.9 64 17.8 93 93 SE 7 11 30.14 1021 10 16 0.00 0.00
1:56 am 01:56 Clear 64 17.8 63 17.2 96 96 SE 3 6 30.16 1021 10 16 0.00 0.00
2:56 am 02:56 Clear 64 17.8 63 17.2 96 96 SE 6 9 30.16 1021 10 16 0.00 0.00
6:56 am 06:56 Sunny 63 17.2 60 15.6 90 90 ESE 5 7 30.19 1022 10 16 0.00 0.00
7:56 am 07:56 Sunny 69 20.6 61 16.1 75 75 E 5 7 30.19 1022 10 16 0.00 0.00
8:56 am 08:56 Sunny 75 23.9 62 16.7 64 64 ESE 3 6 30.21 1023 10 16 0.00 0.00
9:56 am 09:56 Sunny 78 25.6 63 17.2 60 60 E 3 6 30.21 1023 10 16 0.00 0.00
10:56 am 10:56 Sunny 80 26.7 66 18.9 62 62 ENE 9 15 30.21 1023 10 16 0.00 0.00
11:56 am 11:56 Sunny 82 27.8 67 19.4 60 60 NE 10 17 30.22 1023 10 16 0.00 0.00
12:56 pm 12:56 Sunny 83 28.3 67 19.4 59 59 ENE 12 19 30.21 1023 10 16 0.00 0.00
1:56 pm 13:56 Sunny 85 29.4 67 19.4 55 55 E 9 15 30.20 1023 10 16 0.00 0.00
2:56 pm 14:56 Sunny 85 29.4 68 20 57 57 ESE 9 15 30.19 1023 10 16 0.00 0.00
3:56 pm 15:56 Sunny 88 31.1 68 20 52 52 SE 6 9 30.19 1023 10 16 0.00 0.00
4:56 pm 16:56 Mostly Sunny 85 29.4 72 22.2 65 65 ENE 9 15 30.19 1023 10 16 0.00 0.00
5:56 pm 17:56 Mostly Sunny 87 30.6 73 22.8 63 63 E 7 11 30.19 1022 10 16 0.00 0.00
6:56 pm 18:56 Sunny 85 29.4 72 22.2 65 65 ENE 12 19 30.18 1022 10 16 0.00 0.00
7:56 pm 19:56 Sunny 80 26.7 71 21.7 74 74 ENE 14 22 30.17 1022 10 16 0.00 0.00
8:56 pm 20:56 Clear 75 23.9 71 21.7 88 88 ENE 12 19 30.18 1022 10 16 0.00 0.00
9:56 pm 21:56 Clear 73 22.8 69 20.6 87 87 ENE 12 19 30.19 1022 10 16 0.00 0.00
10:56 pm 22:56 Clear 72 22.2 64 17.8 76 76 ENE 10 17 30.20 1023 10 16 0.00 0.00
11:56 pm 23:56 Mostly Clear 70 21.1 63 17.2 78 78 E 10 17 30.21 1023 10 16 0.00 0.00

Powered by AerisWeather